Hancock, MI

10:03 AM EDT on August 27, 2016 (GMT -0400)
Houghton County Memorial

Weather History for KCMX - March, 2014

Change the Weather History Date:

Wednesday, March 5, 2014

  Actual Average Record
Temperature  
Mean Temperature 2 °F -  
Max Temperature 9 °F 27 °F 47 °F (1974)
Min Temperature -6 °F 13 °F -20 °F (2015)
Degree Days  
Heating Degree Days 64    
Moisture  
Dew Point -6 °F    
Average Humidity 71    
Maximum Humidity 84    
Minimum Humidity 55    
Precipitation  
Precipitation 0.00 in - - ()
Sea Level Pressure  
Sea Level Pressure 30.55 in    
Wind  
Wind Speed 8 mph (East)    
Max Wind Speed 12 mph    
Max Gust Speed -    
Visibility 10 miles    
Events      
Averages and records for this station are not official NWS values.
T = Trace of Precipitation, MM = Missing Value Source: NWS Daily Summary

Daily Weather History Graph

Daily Weather History Graph

Search for Another Location

Airport or City:

Trip Planner

Search our weather history database for the weather conditions in past years. The results will help you decide how hot, cold, wet, or windy it might be!

Date:

Astronomy

Mar. 05, 2014 Rise Set
Actual Time 7:26 AM EST 6:45 PM EST
Civil Twilight 6:55 AM EST 7:15 PM EST
Nautical Twilight 6:20 AM EST 7:51 PM EST
Astronomical Twilight 5:45 AM EST 8:26 PM EST
Moon 9:32 AM EST (3/5) No Moon Set
Length of Visible Light 12h 19m
Length of Day
11h 18m
Waxing Crescent, 23% of the Moon is Illuminated
Mar 5
Waxing Crescent
Mar 8
First Quarter
Mar 16
Full
Mar 23
Last Quarter
Mar 30
New

Hourly Weather History & Observations

Time (EST) Temp. Windchill Dew Point Humidity Pressure Visibility Wind Dir Wind Speed Gust Speed Precip Events Conditions
12:53 AM -0.9 °F -15.3 °F -6.0 °F 79% 30.44 in 10.0 mi NE 8.1 mph - N/A   Clear
1:53 AM 1.0 °F -12.9 °F -5.1 °F 75% 30.47 in 10.0 mi NE 8.1 mph - N/A   Clear
2:53 AM -0.0 °F -15.3 °F -7.1 °F 72% 30.48 in 10.0 mi NE 9.2 mph - N/A   Clear
3:53 AM -0.0 °F -14.2 °F -7.1 °F 72% 30.49 in 10.0 mi NE 8.1 mph - N/A   Clear
4:53 AM -2.0 °F -17.7 °F -9.0 °F 72% 30.50 in 10.0 mi NE 9.2 mph - N/A   Clear
5:53 AM -2.0 °F -19.6 °F -9.9 °F 69% 30.53 in 10.0 mi NE 11.5 mph - N/A   Clear
6:53 AM -4.0 °F -20.2 °F -11.0 °F 72% 30.55 in 10.0 mi NE 9.2 mph - N/A   Clear
7:53 AM -6.0 °F -21.5 °F -13.0 °F 72% 30.59 in 10.0 mi ENE 8.1 mph - N/A   Clear
8:53 AM -2.9 °F -16.5 °F -9.9 °F 72% 30.61 in 10.0 mi ENE 6.9 mph - N/A   Clear
9:53 AM -0.0 °F -13.0 °F -7.1 °F 72% 30.63 in 10.0 mi East 6.9 mph - N/A   Clear
10:53 AM 1.9 °F -13.8 °F -5.1 °F 72% 30.63 in 10.0 mi East 10.4 mph - N/A   Scattered Clouds
11:07 AM 3.2 °F -10.3 °F -4.0 °F 72% 30.53 in 10.0 mi East 8.1 mph - N/A   Mostly Cloudy
11:27 AM 3.2 °F -9.1 °F -4.0 °F 72% 30.54 in 10.0 mi ESE 6.9 mph - N/A   Partly Cloudy
11:53 AM 5.0 °F -9.1 °F -4.0 °F 66% 30.63 in 10.0 mi East 9.2 mph - N/A   Clear
12:53 PM 6.1 °F -5.6 °F -4.0 °F 63% 30.63 in 10.0 mi ESE 6.9 mph - N/A   Clear
1:53 PM 8.1 °F -2.0 °F -4.0 °F 58% 30.61 in 10.0 mi ESE 5.8 mph - N/A   Clear
2:53 PM 8.1 °F -3.2 °F -5.1 °F 55% 30.59 in 10.0 mi East 6.9 mph - N/A   Clear
3:53 PM 9.0 °F -3.2 °F -4.0 °F 56% 30.59 in 10.0 mi ESE 8.1 mph - N/A   Clear
4:53 PM 7.0 °F -6.6 °F -2.9 °F 64% 30.58 in 10.0 mi East 9.2 mph - N/A   Clear
5:53 PM 5.0 °F -9.1 °F -4.0 °F 66% 30.56 in 10.0 mi ESE 9.2 mph - N/A   Clear
6:53 PM 5.0 °F -10.8 °F -2.9 °F 70% 30.55 in 10.0 mi ESE 11.5 mph - N/A   Clear
7:53 PM 3.9 °F -12.2 °F -2.9 °F 73% 30.55 in 10.0 mi East 11.5 mph - N/A   Clear
8:53 PM 3.0 °F -12.5 °F -2.0 °F 80% 30.53 in 10.0 mi East 10.4 mph - N/A   Clear
9:53 PM 3.0 °F -11.5 °F -0.9 °F 84% 30.52 in 10.0 mi East 9.2 mph - N/A   Clear
10:53 PM 1.9 °F -10.6 °F -2.9 °F 80% 30.50 in 10.0 mi East 6.9 mph - N/A   Clear
11:53 PM -0.0 °F -11.6 °F -5.1 °F 79% 30.48 in 10.0 mi ESE 5.8 mph - N/A   Clear